Weather History for KAUS - January, 2012

Change the Weather History Date:

Sunday, January 22, 2012

  Actual Average Record
Temperature  
Mean Temperature 59 °F 49 °F  
Max Temperature 74 °F 62 °F 83 °F (1972)
Min Temperature 43 °F 37 °F 20 °F (2011)
Degree Days  
Heating Degree Days 6 16  
Month to date heating degree days 284 352  
Since 1 July heating degree days 974 1099  
Cooling Degree Days 0 0  
Month to date cooling degree days 3 0  
Year to date cooling degree days 3 0  
Growing Degree Days 10 (Base 50)    
Moisture  
Dew Point 55 °F    
Average Humidity 84    
Maximum Humidity 100    
Minimum Humidity 68    
Precipitation  
Precipitation T in 0.08 in 2.44 in (2015)
Month to date precipitation 0.63 1.63  
Year to date precipitation 0.63 1.63  
Snow  
Snow 0.00 in - - ()
Month to date snowfall 0.0  
Since 1 July snowfall 0.0  
Snow Depth 0.00 in    
Sea Level Pressure  
Sea Level Pressure 29.82 in    
Wind  
Wind Speed 7 mph (SSW)    
Max Wind Speed 21 mph    
Max Gust Speed 25 mph    
Visibility 6 miles    
Events      
T = Trace of Precipitation, MM = Missing Value Source: NWS Daily Summary

Daily Weather History Graph

Daily Weather History Graph

Search for Another Location

Airport or City:

Trip Planner

Search our weather history database for the weather conditions in past years. The results will help you decide how hot, cold, wet, or windy it might be!

Date:

Astronomy

Jan. 22, 2012 Rise Set
Actual Time 7:26 AM CST 5:58 PM CST
Civil Twilight 7:00 AM CST 6:24 PM CST
Nautical Twilight 6:31 AM CST 6:53 PM CST
Astronomical Twilight 6:02 AM CST 7:21 PM CST
Moon 6:43 AM CST (1/22) 5:40 PM CST (1/22)
Length of Visible Light 11h 23m
Length of Day
10h 32m
Waning Crescent, 0% of the Moon is Illuminated
Jan 22
Waning Crescent
Jan 23
New
Jan 30
First Quarter
Feb 7
Full
Feb 14
Last Quarter

Hourly Weather History & Observations

Time (CST) Temp. Dew Point Humidity Pressure Visibility Wind Dir Wind Speed Gust Speed Precip Events Conditions
12:53 AM 51.1 °F 45.0 °F 80% 29.88 in 10.0 mi Calm Calm - N/A   Overcast
1:53 AM 52.0 °F 45.0 °F 77% 29.85 in 10.0 mi Calm Calm - N/A   Overcast
2:53 AM 53.1 °F 46.0 °F 77% 29.84 in 10.0 mi SSW 4.6 mph - N/A   Overcast
3:24 AM 53.6 °F 46.4 °F 77% 29.83 in 10.0 mi South 8.1 mph - N/A   Overcast
3:53 AM 54.0 °F 46.9 °F 77% 29.81 in 10.0 mi SSE 6.9 mph - N/A   Overcast
4:53 AM 53.6 °F 48.2 °F 82% 29.81 in 8.0 mi SSW 6.9 mph - N/A   Overcast
5:53 AM 53.1 °F 51.1 °F 93% 29.81 in 3.0 mi South 8.1 mph - 0.00 in   Light Drizzle
6:18 AM 53.6 °F 51.8 °F 94% 29.80 in 2.5 mi South 9.2 mph - 0.00 in   Light Drizzle
6:53 AM 53.1 °F 51.1 °F 93% 29.80 in 3.0 mi South 6.9 mph - 0.00 in   Overcast
7:53 AM 54.0 °F 52.0 °F 93% 29.81 in 3.0 mi South 4.6 mph - N/A   Overcast
8:44 AM 55.4 °F 53.6 °F 94% 29.80 in 2.0 mi South 4.6 mph - N/A   Overcast
8:53 AM 55.9 °F 53.1 °F 90% 29.81 in 2.0 mi South 4.6 mph - N/A   Overcast
9:53 AM 60.8 °F 57.2 °F 88% 29.79 in 2.0 mi South 11.5 mph - N/A   Overcast
10:53 AM 62.1 °F 59.0 °F 90% 29.81 in 2.0 mi South 10.4 mph - N/A   Overcast
11:53 AM 64.0 °F 60.1 °F 87% 29.77 in 2.0 mi South 16.1 mph 20.7 mph N/A   Overcast
12:53 PM 63.0 °F 61.0 °F 93% 29.79 in 2.0 mi South 6.9 mph - 0.00 in   Light Drizzle
1:53 PM 69.1 °F 63.0 °F 81% 29.76 in 2.0 mi South 15.0 mph 19.6 mph 0.00 in   Overcast
1:59 PM 69.8 °F 64.4 °F 83% 29.76 in 3.0 mi SSW 12.7 mph 19.6 mph N/A   Overcast
2:08 PM 69.8 °F 64.4 °F 83% 29.76 in 3.0 mi South 16.1 mph - N/A   Overcast
2:53 PM 72.0 °F 64.0 °F 76% 29.73 in 6.0 mi SSW 16.1 mph 23.0 mph N/A   Scattered Clouds
3:53 PM 73.0 °F 63.0 °F 71% 29.73 in 8.0 mi South 17.3 mph 23.0 mph N/A   Scattered Clouds
4:53 PM 73.0 °F 63.0 °F 71% 29.75 in 10.0 mi SSW 12.7 mph - N/A   Scattered Clouds
5:53 PM 70.0 °F 62.1 °F 76% 29.77 in 9.0 mi South 9.2 mph - N/A   Mostly Cloudy
6:53 PM 66.9 °F 61.0 °F 81% 29.81 in 9.0 mi Calm Calm - N/A   Scattered Clouds
7:53 PM 57.2 °F 55.4 °F 94% 29.85 in 8.0 mi NNW 5.8 mph - N/A   Partly Cloudy
8:53 PM 55.9 °F 55.0 °F 97% 29.88 in 8.0 mi West 3.5 mph - N/A   Clear
9:33 PM 53.6 °F 51.8 °F 94% 29.90 in 1.5 mi Calm Calm - N/A   Clear
9:40 PM 51.8 °F 51.8 °F 100% 29.90 in 8.0 mi Calm Calm - N/A   Clear
9:53 PM 50.0 °F 50.0 °F 100% 29.91 in 8.0 mi West 3.5 mph - N/A   Clear
10:53 PM 48.0 °F 48.0 °F 100% 29.92 in 8.0 mi West 3.5 mph - N/A   Partly Cloudy
11:53 PM 46.9 °F 46.0 °F 97% 29.95 in 8.0 mi Calm Calm - N/A   Clear